^^
Station Historical Data
Daily Summary for April 8, 2021 Units:  English    Metric   Both
Daily Weekly Monthly Yearly
  High: Low: Average:
Temperature: 73.2 °F 53.9 °F 61 °F
Dew Point: 58 °F 46.4 °F 51.7 °F
Humidity: 79% 58% 72%
Wind Speed: 9mph 1mph 5.9mph
Wind Gust: 10mph - -
Wind- - SE
Pressure: 29.83 in 29.60 in -
Precipitation: 0.00 in    
 
 
Tabular Data for April 8, 2021
Time Temperature Dew Point Pressure Wind Wind Speed Wind Gust Humidity Rainfall Rate (Hourly) solar
00:00 59.7 °F 53.2 °F 29.83 in SE 6 mph 6 mph 79% 0.00 in 0 W/m2
00:05 59.6 °F 53.1 °F 29.83 in SSE 5 mph 6 mph 79% 0.00 in 0 W/m2
00:10 59.6 °F 52.7 °F 29.83 in ESE 4 mph 4 mph 78% 0.00 in 0 W/m2
00:15 59.7 °F 52.8 °F 29.83 in West 3 mph 4 mph 78% 0.00 in 0 W/m2
00:20 59.7 °F 52.8 °F 29.83 in ESE 2 mph 4 mph 78% 0.00 in 0 W/m2
00:25 59.6 °F 52.7 °F 29.83 in SE 3 mph 4 mph 78% 0.00 in 0 W/m2
00:30 59.4 °F 52.9 °F 29.83 in SSE 3 mph 4 mph 79% 0.00 in 0 W/m2
00:35 59.3 °F 52.8 °F 29.83 in SSE 3 mph 4 mph 79% 0.00 in 0 W/m2
00:40 59.3 °F 52.8 °F 29.83 in SSE 3 mph 3 mph 79% 0.00 in 0 W/m2
00:45 59.2 °F 52.7 °F 29.83 in SSE 2 mph 3 mph 79% 0.00 in 0 W/m2
00:50 59.1 °F 52.2 °F 29.83 in SSW 1 mph 1 mph 78% 0.00 in 0 W/m2
00:55 59 °F 52.5 °F 29.82 in SSW 1 mph 1 mph 79% 0.00 in 0 W/m2
01:00 58.9 °F 52.1 °F 29.82 in South 1 mph 4 mph 78% 0.00 in 0 W/m2
01:05 58.9 °F 52.1 °F 29.82 in SSE 3 mph 4 mph 78% 0.00 in 0 W/m2
01:10 58.9 °F 52.4 °F 29.82 in SE 4 mph 5 mph 79% 0.00 in 0 W/m2
01:15 59 °F 52.1 °F 29.82 in SSE 4 mph 5 mph 78% 0.00 in 0 W/m2
01:20 59 °F 51.8 °F 29.81 in ESE 5 mph 7 mph 77% 0.00 in 0 W/m2
01:25 59 °F 52.1 °F 29.81 in SSE 5 mph 7 mph 78% 0.00 in 0 W/m2
01:35 58.9 °F 51.7 °F 29.81 in ESE 6 mph 7 mph 77% 0.00 in 0 W/m2
01:40 58.7 °F 51.5 °F 29.81 in ESE 6 mph 7 mph 77% 0.00 in 0 W/m2
01:45 58.6 °F 51.4 °F 29.81 in East 5 mph 7 mph 77% 0.00 in 0 W/m2
01:50 58.5 °F 51.3 °F 29.81 in ESE 5 mph 6 mph 77% 0.00 in 0 W/m2
01:55 58.3 °F 51.1 °F 29.81 in SE 5 mph 6 mph 77% 0.00 in 0 W/m2
02:00 58.3 °F 51.5 °F 29.81 in SSE 5 mph 5 mph 78% 0.00 in 0 W/m2
02:05 58 °F 50.8 °F 29.81 in SSW 5 mph 5 mph 77% 0.00 in 0 W/m2
02:10 58 °F 51.2 °F 29.81 in SW 5 mph 5 mph 78% 0.00 in 0 W/m2
02:20 57.7 °F 50.9 °F 29.81 in SE 5 mph 5 mph 78% 0.00 in 0 W/m2
02:25 57.6 °F 50.8 °F 29.81 in SSE 5 mph 5 mph 78% 0.00 in 0 W/m2
02:30 57.5 °F 50.7 °F 29.81 in East 5 mph 5 mph 78% 0.00 in 0 W/m2
02:35 57.5 °F 50.7 °F 29.80 in SE 5 mph 5 mph 78% 0.00 in 0 W/m2
02:40 57.4 °F 50.6 °F 29.80 in SSW 5 mph 6 mph 78% 0.00 in 0 W/m2
02:45 57.3 °F 50.8 °F 29.80 in ESE 5 mph 6 mph 79% 0.00 in 0 W/m2
02:50 57.3 °F 50.8 °F 29.80 in SE 5 mph 5 mph 79% 0.00 in 0 W/m2
02:55 57.2 °F 50.4 °F 29.80 in ESE 6 mph 6 mph 78% 0.00 in 0 W/m2
03:00 57.3 °F 50.5 °F 29.79 in ESE 5 mph 8 mph 78% 0.00 in 0 W/m2
03:05 57.3 °F 50.5 °F 29.79 in SE 6 mph 8 mph 78% 0.00 in 0 W/m2
03:10 57.3 °F 50.5 °F 29.79 in East 6 mph 6 mph 78% 0.00 in 0 W/m2
03:15 57.3 °F 50.5 °F 29.79 in SE 5 mph 6 mph 78% 0.00 in 0 W/m2
03:20 57.3 °F 50.5 °F 29.79 in ESE 4 mph 6 mph 78% 0.00 in 0 W/m2
03:25 57.3 °F 50.5 °F 29.79 in ESE 5 mph 6 mph 78% 0.00 in 0 W/m2
03:30 57.3 °F 50.5 °F 29.79 in SSE 5 mph 6 mph 78% 0.00 in 0 W/m2
03:35 57.3 °F 50.1 °F 29.79 in ESE 5 mph 8 mph 77% 0.00 in 0 W/m2
03:40 57.5 °F 50.3 °F 29.78 in ESE 6 mph 7 mph 77% 0.00 in 0 W/m2
03:45 57.5 °F 50.3 °F 29.79 in SE 6 mph 7 mph 77% 0.00 in 0 W/m2
03:50 57.5 °F 50 °F 29.78 in SE 6 mph 10 mph 76% 0.00 in 0 W/m2
03:55 57.6 °F 50.1 °F 29.78 in ESE 7 mph 10 mph 76% 0.00 in 0 W/m2
04:00 57.7 °F 49.8 °F 29.78 in SE 6 mph 6 mph 75% 0.00 in 0 W/m2
04:05 57.8 °F 49.9 °F 29.78 in SE 6 mph 6 mph 75% 0.00 in 0 W/m2
04:10 57.9 °F 50 °F 29.78 in SE 6 mph 7 mph 75% 0.00 in 0 W/m2
04:15 57.6 °F 50.1 °F 29.78 in SE 6 mph 10 mph 76% 0.00 in 0 W/m2
04:20 57.4 °F 49.9 °F 29.78 in SSE 8 mph 8 mph 76% 0.00 in 0 W/m2
04:25 56.9 °F 49.4 °F 29.77 in ESE 7 mph 8 mph 76% 0.00 in 0 W/m2
04:30 56.6 °F 49.5 °F 29.77 in SSE 7 mph 8 mph 77% 0.00 in 0 W/m2
04:35 56.4 °F 49.3 °F 29.77 in SE 7 mph 8 mph 77% 0.00 in 0 W/m2
04:40 56.2 °F 49.1 °F 29.77 in ESE 8 mph 9 mph 77% 0.00 in 0 W/m2
04:45 56 °F 48.5 °F 29.77 in SE 8 mph 9 mph 76% 0.00 in 0 W/m2
04:50 55.9 °F 48.4 °F 29.77 in SE 8 mph 8 mph 76% 0.00 in 0 W/m2
04:55 55.8 °F 48.3 °F 29.77 in ESE 8 mph 9 mph 76% 0.00 in 0 W/m2
05:00 55.8 °F 48 °F 29.77 in SE 8 mph 9 mph 75% 0.00 in 0 W/m2
05:05 55.8 °F 48 °F 29.77 in SE 8 mph 9 mph 75% 0.00 in 0 W/m2
05:10 55.7 °F 47.9 °F 29.77 in SE 9 mph 9 mph 75% 0.00 in 0 W/m2
05:15 55.7 °F 47.5 °F 29.77 in East 9 mph 9 mph 74% 0.00 in 0 W/m2
05:20 55.7 °F 47.5 °F 29.76 in ESE 8 mph 9 mph 74% 0.00 in 0 W/m2
05:25 55.6 °F 47.1 °F 29.76 in SE 9 mph 9 mph 73% 0.00 in 0 W/m2
05:30 55.5 °F 47.3 °F 29.76 in SE 9 mph 9 mph 74% 0.00 in 0 W/m2
05:35 55.5 °F 47.3 °F 29.76 in SE 9 mph 9 mph 74% 0.00 in 0 W/m2
05:40 55.5 °F 47 °F 29.76 in SE 9 mph 10 mph 73% 0.00 in 0 W/m2
05:45 55.4 °F 46.9 °F 29.76 in SE 9 mph 10 mph 73% 0.00 in 0 W/m2
05:50 55.4 °F 46.9 °F 29.76 in SE 9 mph 9 mph 73% 0.00 in 0 W/m2
05:55 55.3 °F 46.4 °F 29.76 in SE 9 mph 9 mph 72% 0.00 in 0 W/m2
06:05 55.2 °F 46.7 °F 29.76 in SE 9 mph 9 mph 73% 0.00 in 0 W/m2
06:10 55.2 °F 46.7 °F 29.76 in SE 9 mph 9 mph 73% 0.00 in 0 W/m2
06:15 55.2 °F 46.7 °F 29.76 in SE 9 mph 9 mph 73% 0.00 in 0 W/m2
06:20 55.1 °F 47 °F 29.76 in SE 8 mph 8 mph 74% 0.00 in 0 W/m2
06:25 55 °F 46.9 °F 29.76 in SE 8 mph 8 mph 74% 0.00 in 0 W/m2
06:30 54.9 °F 46.4 °F 29.76 in SE 8 mph 9 mph 73% 0.00 in 0 W/m2
06:35 54.8 °F 46.7 °F 29.76 in SE 8 mph 9 mph 74% 0.00 in 0 W/m2
06:40 54.8 °F 46.7 °F 29.76 in ESE 8 mph 8 mph 74% 0.00 in 0 W/m2
06:45 54.7 °F 46.6 °F 29.76 in SE 8 mph 8 mph 74% 0.00 in 0 W/m2
06:50 54.6 °F 46.5 °F 29.76 in SE 8 mph 8 mph 74% 0.00 in 0 W/m2
06:55 54.6 °F 46.8 °F 29.77 in SE 8 mph 8 mph 75% 0.00 in 0 W/m2
07:00 54.4 °F 46.6 °F 29.77 in SE 7 mph 7 mph 75% 0.00 in 5 W/m2
07:05 54.4 °F 46.6 °F 29.77 in SE 7 mph 7 mph 75% 0.00 in 7 W/m2
07:10 54.3 °F 46.5 °F 29.77 in SE 7 mph 8 mph 75% 0.00 in 9 W/m2
07:15 54.2 °F 46.8 °F 29.77 in SE 7 mph 8 mph 76% 0.00 in 12 W/m2
07:25 54.1 °F 46.7 °F 29.77 in SE 7 mph 7 mph 76% 0.00 in 19 W/m2
07:30 54 °F 47 °F 29.77 in SSE 7 mph 7 mph 77% 0.00 in 25 W/m2
07:35 53.9 °F 46.9 °F 29.78 in SE 7 mph 7 mph 77% 0.00 in 26 W/m2
07:40 53.9 °F 46.9 °F 29.78 in SE 6 mph 6 mph 77% 0.00 in 32 W/m2
07:45 53.9 °F 46.9 °F 29.78 in SE 6 mph 6 mph 77% 0.00 in 28 W/m2
07:50 54 °F 47 °F 29.78 in SE 6 mph 6 mph 77% 0.00 in 37 W/m2
07:55 54 °F 47.3 °F 29.78 in SSE 5 mph 6 mph 78% 0.00 in 49 W/m2
08:05 54.1 °F 47.4 °F 29.78 in SE 4 mph 4 mph 78% 0.00 in 37 W/m2
08:10 54.1 °F 47.4 °F 29.79 in SE 3 mph 4 mph 78% 0.00 in 39 W/m2
08:15 54.1 °F 47.4 °F 29.79 in SSE 4 mph 4 mph 78% 0.00 in 39 W/m2
08:35 54.6 °F 47.9 °F 29.78 in SSE 7 mph 8 mph 78% 0.00 in 49 W/m2
08:40 54.7 °F 48 °F 29.78 in ESE 7 mph 7 mph 78% 0.00 in 104 W/m2
08:45 54.7 °F 47.6 °F 29.78 in SSE 6 mph 7 mph 77% 0.00 in 60 W/m2
08:50 54.9 °F 47.8 °F 29.77 in SE 6 mph 6 mph 77% 0.00 in 81 W/m2
08:55 55.2 °F 48.1 °F 29.77 in ESE 6 mph 8 mph 77% 0.00 in 243 W/m2
09:00 55.5 °F 48.4 °F 29.77 in SE 6 mph 6 mph 77% 0.00 in 248 W/m2
09:05 55.9 °F 48.8 °F 29.77 in SE 6 mph 6 mph 77% 0.00 in 265 W/m2
09:10 56 °F 48.5 °F 29.77 in SE 6 mph 6 mph 76% 0.00 in 283 W/m2
09:15 56.2 °F 48.7 °F 29.77 in SE 5 mph 6 mph 76% 0.00 in 107 W/m2
09:20 56.4 °F 48.9 °F 29.76 in ESE 6 mph 7 mph 76% 0.00 in 132 W/m2
09:25 56.5 °F 49.4 °F 29.76 in SE 7 mph 8 mph 77% 0.00 in 121 W/m2
09:30 56.7 °F 49.2 °F 29.76 in SE 7 mph 7 mph 76% 0.00 in 121 W/m2
09:35 57 °F 49.5 °F 29.76 in SE 7 mph 8 mph 76% 0.00 in 236 W/m2
09:40 57.2 °F 50.1 °F 29.76 in SSE 7 mph 7 mph 77% 0.00 in 190 W/m2
09:45 57.4 °F 49.9 °F 29.76 in ESE 7 mph 7 mph 76% 0.00 in 239 W/m2
09:50 57.6 °F 50.4 °F 29.76 in SE 7 mph 7 mph 77% 0.00 in 153 W/m2
09:55 58 °F 50.5 °F 29.76 in ESE 6 mph 7 mph 76% 0.00 in 160 W/m2
10:00 58.6 °F 51.1 °F 29.76 in SE 7 mph 7 mph 76% 0.00 in 353 W/m2
10:05 59.2 °F 51.3 °F 29.76 in SE 8 mph 8 mph 75% 0.00 in 452 W/m2
10:10 59.8 °F 51.9 °F 29.75 in SE 7 mph 9 mph 75% 0.00 in 445 W/m2
10:15 60.1 °F 51.8 °F 29.75 in SE 8 mph 9 mph 74% 0.00 in 336 W/m2
10:20 60.4 °F 51.7 °F 29.75 in SE 8 mph 8 mph 73% 0.00 in 229 W/m2
10:25 60.9 °F 52.2 °F 29.75 in SE 8 mph 8 mph 73% 0.00 in 506 W/m2
10:30 61.6 °F 52.5 °F 29.75 in SE 8 mph 8 mph 72% 0.00 in 529 W/m2
10:35 61.7 °F 52.6 °F 29.75 in SE 6 mph 8 mph 72% 0.00 in 229 W/m2
10:40 62 °F 52.9 °F 29.75 in ESE 6 mph 7 mph 72% 0.00 in 543 W/m2
10:45 62.5 °F 53.3 °F 29.75 in SE 7 mph 7 mph 72% 0.00 in 543 W/m2
10:55 63.4 °F 53.4 °F 29.74 in ESE 8 mph 8 mph 70% 0.00 in 605 W/m2
11:00 63.7 °F 53.7 °F 29.74 in SE 7 mph 7 mph 70% 0.00 in 622 W/m2
11:05 64.2 °F 53.8 °F 29.74 in SSE 6 mph 7 mph 69% 0.00 in 668 W/m2
11:10 63.6 °F 53.6 °F 29.74 in SSE 5 mph 5 mph 70% 0.00 in 635 W/m2
11:15 64.5 °F 54.1 °F 29.74 in South 4 mph 5 mph 69% 0.00 in 624 W/m2
11:20 64.9 °F 53.7 °F 29.74 in SSE 4 mph 4 mph 67% 0.00 in 621 W/m2
11:25 64.6 °F 54.2 °F 29.74 in SE 4 mph 4 mph 69% 0.00 in 308 W/m2
11:30 64.9 °F 54.1 °F 29.74 in SE 4 mph 4 mph 68% 0.00 in 673 W/m2
11:35 65.6 °F 54.3 °F 29.74 in WNW 4 mph 4 mph 67% 0.00 in 466 W/m2
11:40 65.5 °F 54.2 °F 29.73 in SE 4 mph 5 mph 67% 0.00 in 262 W/m2
11:50 66 °F 54.3 °F 29.73 in SW 3 mph 3 mph 66% 0.00 in 605 W/m2
11:55 65.4 °F 53.7 °F 29.73 in South 3 mph 5 mph 66% 0.00 in 686 W/m2
12:05 66.1 °F 54.4 °F 29.72 in SSE 3 mph 5 mph 66% 0.00 in 745 W/m2
12:10 67 °F 54.8 °F 29.72 in ESE 4 mph 4 mph 65% 0.00 in 515 W/m2
12:15 67.1 °F 54.9 °F 29.72 in SE 5 mph 5 mph 65% 0.00 in 404 W/m2
12:20 66.6 °F 54.5 °F 29.72 in South 5 mph 5 mph 65% 0.00 in 320 W/m2
12:25 67.1 °F 54.5 °F 29.72 in SE 4 mph 5 mph 64% 0.00 in 323 W/m2
12:30 66.3 °F 54.2 °F 29.72 in East 4 mph 4 mph 65% 0.00 in 330 W/m2
12:35 67.3 °F 55.1 °F 29.72 in NW 3 mph 4 mph 65% 0.00 in 830 W/m2
12:40 68.6 °F 55.5 °F 29.71 in South 3 mph 3 mph 63% 0.00 in 738 W/m2
12:45 69.4 °F 55.8 °F 29.71 in ESE 3 mph 7 mph 62% 0.00 in 745 W/m2
12:50 68 °F 55.4 °F 29.71 in SSW 5 mph 5 mph 64% 0.00 in 701 W/m2
13:00 69.1 °F 55.5 °F 29.70 in SE 5 mph 5 mph 62% 0.00 in 772 W/m2
13:05 68.8 °F 55.2 °F 29.69 in ENE 4 mph 6 mph 62% 0.00 in 770 W/m2
13:10 69.5 °F 55.5 °F 29.69 in NNE 4 mph 4 mph 61% 0.00 in 766 W/m2
13:15 68.9 °F 55.8 °F 29.69 in West 4 mph 4 mph 63% 0.00 in 766 W/m2
13:20 68.5 °F 55.8 °F 29.69 in ESE 3 mph 4 mph 64% 0.00 in 752 W/m2
13:25 68 °F 55.4 °F 29.69 in SE 4 mph 10 mph 64% 0.00 in 758 W/m2
13:30 68.1 °F 55 °F 29.69 in ESE 5 mph 5 mph 63% 0.00 in 350 W/m2
13:35 69.7 °F 56.1 °F 29.69 in SSE 6 mph 6 mph 62% 0.00 in 976 W/m2
13:40 69.8 °F 55.7 °F 29.68 in SSE 6 mph 6 mph 61% 0.00 in 267 W/m2
13:45 69.3 °F 55.3 °F 29.68 in SSE 6 mph 6 mph 61% 0.00 in 870 W/m2
13:50 69.1 °F 56 °F 29.68 in SSE 5 mph 5 mph 63% 0.00 in 775 W/m2
14:00 70.4 °F 56.3 °F 29.68 in SE 5 mph 6 mph 61% 0.00 in 823 W/m2
14:05 69.8 °F 55.7 °F 29.67 in SE 6 mph 6 mph 61% 0.00 in 749 W/m2
14:10 69.9 °F 56.3 °F 29.67 in East 5 mph 5 mph 62% 0.00 in 710 W/m2
14:20 71.6 °F 56 °F 29.67 in SSE 7 mph 7 mph 58% 0.00 in 715 W/m2
14:25 70.9 °F 55.9 °F 29.67 in ENE 6 mph 7 mph 59% 0.00 in 735 W/m2
14:30 70.4 °F 55.8 °F 29.66 in SE 5 mph 7 mph 60% 0.00 in 239 W/m2
14:35 70.7 °F 56.6 °F 29.67 in SE 6 mph 7 mph 61% 0.00 in 199 W/m2
14:40 70.7 °F 56.1 °F 29.66 in South 7 mph 7 mph 60% 0.00 in 128 W/m2
14:50 69.6 °F 56 °F 29.66 in SSE 7 mph 7 mph 62% 0.00 in 83 W/m2
14:55 68.5 °F 55.8 °F 29.65 in SSE 6 mph 7 mph 64% 0.00 in 142 W/m2
15:05 67.9 °F 56.1 °F 29.65 in SE 5 mph 5 mph 66% 0.00 in 104 W/m2
15:10 68 °F 56.2 °F 29.65 in SE 5 mph 8 mph 66% 0.00 in 181 W/m2
15:15 69.2 °F 56.5 °F 29.65 in SE 6 mph 9 mph 64% 0.00 in 165 W/m2
15:20 69.2 °F 56.1 °F 29.64 in SE 7 mph 8 mph 63% 0.00 in 137 W/m2
15:25 69 °F 55.9 °F 29.64 in SE 7 mph 8 mph 63% 0.00 in 98 W/m2
15:35 69.3 °F 55.7 °F 29.64 in ESE 6 mph 7 mph 62% 0.00 in 70 W/m2
15:40 69.3 °F 55.7 °F 29.64 in SSE 5 mph 5 mph 62% 0.00 in 79 W/m2
15:50 69.3 °F 56.2 °F 29.64 in SSE 5 mph 6 mph 63% 0.00 in 49 W/m2
15:55 69 °F 56.3 °F 29.64 in SE 6 mph 8 mph 64% 0.00 in 58 W/m2
16:00 68.7 °F 56.5 °F 29.64 in SSE 6 mph 8 mph 65% 0.00 in 123 W/m2
16:05 68.7 °F 56.5 °F 29.64 in SE 7 mph 10 mph 65% 0.00 in 121 W/m2
16:10 68.6 °F 56.4 °F 29.63 in SE 8 mph 8 mph 65% 0.00 in 132 W/m2
16:15 68.5 °F 56.3 °F 29.63 in SE 8 mph 8 mph 65% 0.00 in 149 W/m2
16:20 68.9 °F 56.6 °F 29.63 in ESE 7 mph 7 mph 65% 0.00 in 216 W/m2
16:30 69.2 °F 56.5 °F 29.62 in SE 7 mph 7 mph 64% 0.00 in 267 W/m2
16:35 68.8 °F 56.6 °F 29.62 in ESE 6 mph 7 mph 65% 0.00 in 374 W/m2
16:40 69.8 °F 56.6 °F 29.61 in SE 5 mph 5 mph 63% 0.00 in 255 W/m2
16:45 70.6 °F 56.9 °F 29.61 in ESE 4 mph 5 mph 62% 0.00 in 274 W/m2
16:50 73.2 °F 58 °F 29.61 in ESE 5 mph 6 mph 59% 0.00 in 169 W/m2
17:00 72.7 °F 57.5 °F 29.60 in ESE 5 mph 5 mph 59% 0.00 in 169 W/m2
17:05 72.1 °F 57.4 °F 29.60 in SE 6 mph 8 mph 60% 0.00 in 135 W/m2
17:10 70.4 °F 56.8 °F 29.60 in ESE 7 mph 7 mph 62% 0.00 in 125 W/m2
17:15 70.1 °F 56 °F 29.60 in SE 8 mph 9 mph 61% 0.00 in 125 W/m2
17:25 69.8 °F 56.2 °F 29.60 in SE 8 mph 8 mph 62% 0.00 in 123 W/m2
Sand Point, Michigan, USA
Compliments of Weather Underground - 2 mb